TimeEDT,TemperatureF,Dew PointF,Humidity,Sea Level PressureIn,VisibilityMPH,Wind Direction,Wind SpeedMPH,Gust SpeedMPH,PrecipitationIn,Events,Conditions,WindDirDegrees,DateUTC
12:51 AM,37.9,37.0,97,29.69,5.0,WSW,6.9,-,0.01,Rain,Light Rain,240,2013-03-19 04:51:00
1:51 AM,39.0,36.0,89,29.70,10.0,West,10.4,-,0.01,Rain,Light Rain,260,2013-03-19 05:51:00
2:51 AM,36.0,33.1,89,29.74,7.0,West,16.1,31.1,0.01,Rain,Light Rain,260,2013-03-19 06:51:00
3:29 AM,35.6,30.2,81,29.72,10.0,WSW,11.5,-,0.00,,Overcast,250,2013-03-19 07:29:00
3:51 AM,35.1,28.9,78,29.75,10.0,West,12.7,23.0,0.00,,Overcast,260,2013-03-19 07:51:00
4:51 AM,34.0,28.0,79,29.75,9.0,SW,5.8,-,0.00,Snow,Light Snow,230,2013-03-19 08:51:00
5:51 AM,35.1,28.9,78,29.75,9.0,SSW,5.8,-,0.00,Snow,Light Snow,210,2013-03-19 09:51:00
5:59 AM,35.6,28.4,75,29.72,9.0,SW,8.1,-,0.00,,Overcast,220,2013-03-19 09:59:00
6:51 AM,35.1,25.0,67,29.76,10.0,SW,15.0,27.6,0.00,,Mostly Cloudy,230,2013-03-19 10:51:00
7:51 AM,34.0,23.0,64,29.76,10.0,WSW,17.3,33.4,N/A,,Overcast,250,2013-03-19 11:51:00
8:51 AM,33.1,24.1,70,29.77,10.0,WSW,11.5,-,N/A,,Overcast,250,2013-03-19 12:51:00
9:06 AM,32.0,23.0,69,29.74,10.0,West,15.0,20.7,N/A,,Overcast,260,2013-03-19 13:06:00
9:51 AM,30.9,19.9,64,29.78,10.0,WSW,19.6,31.1,N/A,,Overcast,240,2013-03-19 13:51:00
10:51 AM,30.0,19.9,66,29.79,10.0,WSW,17.3,27.6,N/A,,Overcast,250,2013-03-19 14:51:00
11:51 AM,28.0,17.1,63,29.82,9.0,West,26.5,35.7,0.00,Snow,Light Snow,260,2013-03-19 15:51:00
12:32 PM,28.4,17.6,64,29.78,10.0,WSW,12.7,26.5,0.00,Snow,Light Snow,250,2013-03-19 16:32:00
12:51 PM,28.0,18.0,66,29.82,9.0,WSW,17.3,32.2,0.00,Snow,Light Snow,250,2013-03-19 16:51:00
1:08 PM,28.4,19.4,69,29.79,7.0,West,15.0,26.5,0.00,Snow,Light Snow,260,2013-03-19 17:08:00
1:32 PM,30.2,19.4,64,29.79,9.0,WSW,21.9,35.7,0.00,Snow,Light Snow,250,2013-03-19 17:32:00
1:51 PM,30.0,19.0,64,29.82,8.0,WSW,18.4,29.9,0.00,Snow,Light Snow,240,2013-03-19 17:51:00
2:51 PM,28.9,19.9,69,29.83,7.0,West,18.4,28.8,0.00,Snow,Light Snow,260,2013-03-19 18:51:00
3:07 PM,28.4,19.4,69,29.80,1.5,West,23.0,35.7,0.00,Snow,Light Snow,260,2013-03-19 19:07:00
3:14 PM,28.4,21.2,74,29.80,7.0,WSW,19.6,26.5,0.00,Snow,Light Snow,250,2013-03-19 19:14:00
3:51 PM,28.9,21.0,72,29.85,1.0,West,25.3,34.5,0.00,Snow,Light Snow,260,2013-03-19 19:51:00
4:03 PM,28.4,21.2,74,29.82,7.0,WSW,18.4,28.8,0.00,Snow,Light Snow,250,2013-03-19 20:03:00
4:10 PM,28.4,21.2,74,29.82,1.5,WSW,21.9,31.1,0.00,Snow,Light Snow,250,2013-03-19 20:10:00
4:20 PM,28.4,21.2,74,29.82,7.0,WSW,17.3,24.2,0.00,Snow,Light Snow,250,2013-03-19 20:20:00
4:51 PM,30.0,17.1,59,29.87,9.0,West,20.7,28.8,N/A,Snow,Light Snow,260,2013-03-19 20:51:00
5:51 PM,30.0,17.1,59,29.89,9.0,WSW,16.1,31.1,0.00,Snow,Light Snow,250,2013-03-19 21:51:00
6:51 PM,28.0,19.0,69,29.91,3.0,West,13.8,24.2,0.00,Snow,Light Snow,260,2013-03-19 22:51:00
7:51 PM,28.9,17.1,61,29.91,9.0,West,16.1,25.3,N/A,,Overcast,260,2013-03-19 23:51:00
8:51 PM,28.9,17.1,61,29.93,9.0,West,19.6,32.2,0.00,Snow,Light Snow,260,2013-03-20 00:51:00
9:51 PM,28.9,16.0,58,29.94,9.0,West,17.3,27.6,0.00,Snow,Light Snow,260,2013-03-20 01:51:00
10:51 PM,28.9,17.1,61,29.95,9.0,West,15.0,23.0,0.00,,Overcast,260,2013-03-20 02:51:00
11:51 PM,28.0,17.1,63,29.95,10.0,West,12.7,19.6,N/A,,Mostly Cloudy,260,2013-03-20 03:51:00